Location: Hamburg
(53.5500°N, 10.0000°E)
Time: 07:35:50
(UTC+02:00)

ISS - Visible Passes

Search period start: 01 September 2016 00:00
Search period end: 11 September 2016 00:00
Orbit: 402 x 406 km, 51.6° (Epoch: 31 August)

Date Brightness Start Highest point End Pass type
(mag) Time Alt. Az. Time Alt. Az. Time Alt. Az.
07 Sep -1.0 05:59:42 10° SSW 06:02:02 18° SSE 06:04:23 10° E visible
08 Sep -0.7 05:08:23 10° SSE 05:09:49 12° SE 05:11:14 10° ESE visible
09 Sep -1.8 05:50:24 10° SW 05:53:17 28° SSE 05:56:10 10° E visible
10 Sep -1.4 04:59:47 17° S 05:00:58 20° SSE 05:03:29 10° E visible
